WXM80 ListenWXM80 Stop

You find our weather info also at:

UK Metoffice

WeatherCloud

Weather Underground

Northeastern Weather Network

AWEKAS

Citizen Weather Observer Program (CWOP)

HAMweather, WeatherForYou, PWS Weather


Weather Underground History page Text

Daily Summary for June 13, 2017 Units:  Metric    English   Both
« Previous Day
Next Day »
Daily Weekly Monthly Yearly Custom
  High: Low: Average:
Temperature: 37.8 °C 23.7 °C 29.9 °C
Dew Point: 22.8 °C 18.1 °C 20.5 °C
Humidity: 78 % 36 % 59 %
Wind Speed: 12.6 km/h 0 km/h 2.9 km/h
Wind Gust: 18.5 km/h - -
Wind:- - WSW
Pressure: 1012.1 hPa 1007.3 hPa -
Precipitation: 0 mm    
Historical Graphs
 
 
Tabular Data for June 13, 2017
Time Temperature Dew Point Pressure Wind Wind Speed Wind Gust Humidity Rainfall Rate (Hourly)
00:01 25.3 °C 18.3 °C 1011.7 hPa Calm   1.6 km/h 65 % 0 mm
00:06 25.3 °C 18.3 °C 1011.7 hPa Calm     65 % 0 mm
00:11 25.3 °C 18.2 °C 1011.7 hPa Calm     65 % 0 mm
00:16 25.3 °C 18.2 °C 1011.7 hPa Calm   1.9 km/h 65 % 0 mm
00:21 25.2 °C 18.2 °C 1011.7 hPa SW 0.2 km/h 1.9 km/h 65 % 0 mm
00:26 25.2 °C 18.2 °C 1011.7 hPa SW 0.6 km/h 3.7 km/h 65 % 0 mm
00:31 25.2 °C 18.2 °C 1011.7 hPa SW 0.8 km/h 3.7 km/h 65 % 0 mm
00:36 25.2 °C 18.1 °C 1011.7 hPa Calm   1.9 km/h 65 % 0 mm
00:41 25.2 °C 18.1 °C 1011.7 hPa WSW 1.1 km/h 4.8 km/h 65 % 0 mm
00:46 25.2 °C 18.4 °C 1011.7 hPa WSW 1.1 km/h 3.7 km/h 66 % 0 mm
00:51 25.2 °C 18.4 °C 1011.7 hPa SW 2.7 km/h 5.6 km/h 66 % 0 mm
00:54 25.2 °C 18.4 °C 1011.7 hPa SW 0.6 km/h 1.9 km/h 66 % 0 mm
00:59 25.2 °C 18.4 °C 1011.7 hPa SW 0.3 km/h 1.9 km/h 66 % 0 mm
01:04 25.2 °C 18.4 °C 1011.7 hPa SW 0.8 km/h 3.7 km/h 66 % 0 mm
01:09 25.2 °C 18.6 °C 1011.7 hPa SW 1.1 km/h 3.7 km/h 67 % 0 mm
01:14 25.2 °C 18.6 °C 1011.7 hPa SW 1 km/h 3.7 km/h 67 % 0 mm
01:19 25.1 °C 18.6 °C 1011.7 hPa SW 0.5 km/h 1.9 km/h 67 % 0 mm
01:24 25.1 °C 18.5 °C 1011.7 hPa SW 1.4 km/h 1.9 km/h 67 % 0 mm
01:29 25 °C 18.4 °C 1011.7 hPa SW 0.8 km/h 1.9 km/h 67 % 0 mm
01:34 24.9 °C 18.4 °C 1011.7 hPa SW 1.3 km/h 3.7 km/h 67 % 0 mm
01:39 24.9 °C 18.3 °C 1011.7 hPa SW 0.3 km/h 5.6 km/h 67 % 0 mm
01:44 24.8 °C 18.3 °C 1011.7 hPa WSW 1.6 km/h 5.6 km/h 67 % 0 mm
01:49 24.8 °C 18.4 °C 1011.7 hPa WSW 2.4 km/h 5.6 km/h 68 % 0 mm
01:54 24.7 °C 18.4 °C 1011.7 hPa WSW 0.8 km/h 3.2 km/h 68 % 0 mm
01:59 24.7 °C 18.4 °C 1011.7 hPa WSW 0.3 km/h 1.9 km/h 68 % 0 mm
02:04 24.7 °C 18.4 °C 1011.7 hPa WSW 1.6 km/h 5.6 km/h 68 % 0 mm
02:09 24.7 °C 18.4 °C 1011.7 hPa WSW 0.2 km/h 1.9 km/h 68 % 0 mm
02:15 24.7 °C 18.4 °C 1012.1 hPa WSW 0.5 km/h 1.9 km/h 68 % 0 mm
02:20 24.7 °C 18.4 °C 1011.7 hPa Calm   1.9 km/h 68 % 0 mm
02:25 24.7 °C 18.4 °C 1011.7 hPa Calm   1.9 km/h 68 % 0 mm
02:30 24.7 °C 18.4 °C 1011.7 hPa WSW 0.2 km/h 1.9 km/h 68 % 0 mm
02:35 24.7 °C 18.4 °C 1011.7 hPa Calm     68 % 0 mm
02:40 24.7 °C 18.4 °C 1011.7 hPa Calm     68 % 0 mm
02:45 24.7 °C 18.4 °C 1011.7 hPa Calm     68 % 0 mm
02:50 24.6 °C 18.3 °C 1011.7 hPa WSW 0.2 km/h 1.9 km/h 68 % 0 mm
02:55 24.6 °C 18.3 °C 1011.7 hPa Calm   1.9 km/h 68 % 0 mm
03:00 24.6 °C 18.5 °C 1011.7 hPa SW 2.1 km/h 5.6 km/h 69 % 0 mm
03:02 24.6 °C 18.5 °C 1011.7 hPa SW 0.3 km/h 3.7 km/h 69 % 0 mm
03:07 24.6 °C 18.3 °C 1012.1 hPa Calm   1.9 km/h 68 % 0 mm
03:12 24.6 °C 18.5 °C 1012.1 hPa SW 0.8 km/h 3.7 km/h 69 % 0 mm
03:17 24.6 °C 18.5 °C 1012.1 hPa SW 1 km/h 3.7 km/h 69 % 0 mm
03:22 24.5 °C 18.4 °C 1012.1 hPa SW 0.2 km/h 3.7 km/h 69 % 0 mm
03:27 24.5 °C 18.4 °C 1012.1 hPa SW 0.8 km/h 3.7 km/h 69 % 0 mm
03:32 24.4 °C 18.4 °C 1012.1 hPa SW 1.1 km/h 3.7 km/h 69 % 0 mm
03:37 24.4 °C 18.4 °C 1012.1 hPa SW 0.6 km/h 1.9 km/h 69 % 0 mm
03:42 24.4 °C 18.3 °C 1012.1 hPa SW 1.1 km/h 3.7 km/h 69 % 0 mm
03:47 24.3 °C 18.3 °C 1012.1 hPa SW 0.5 km/h 1.9 km/h 69 % 0 mm
03:52 24.3 °C 18.3 °C 1012.1 hPa SW 0.5 km/h 3.7 km/h 69 % 0 mm
03:57 24.3 °C 18.4 °C 1011.7 hPa Calm   1.9 km/h 70 % 0 mm
04:02 24.3 °C 18.4 °C 1011.7 hPa WSW 3.5 km/h 5.6 km/h 70 % 0 mm
04:07 24.2 °C 18.4 °C 1011.7 hPa WSW 1.8 km/h 3.7 km/h 70 % 0 mm
04:12 24.2 °C 18.4 °C 1011.7 hPa WSW 4.2 km/h 5.6 km/h 70 % 0 mm
04:17 24.2 °C 18.4 °C 1011.7 hPa WSW 2.1 km/h 3.2 km/h 70 % 0 mm
04:23 24.2 °C 18.6 °C 1011.7 hPa SW 1 km/h 7.4 km/h 71 % 0 mm
04:28 24.2 °C 18.3 °C 1011.7 hPa SW 3.4 km/h 5.6 km/h 70 % 0 mm
04:33 24.2 °C 18.3 °C 1011.7 hPa West 1.8 km/h 4.8 km/h 70 % 0 mm
04:38 24.2 °C 18.6 °C 1011.7 hPa SW 6 km/h 11.1 km/h 71 % 0 mm
04:43 24.2 °C 18.6 °C 1011.7 hPa WSW 2.7 km/h 5.6 km/h 71 % 0 mm
04:48 24.2 °C 18.6 °C 1011.7 hPa WSW 3.4 km/h 9.3 km/h 71 % 0 mm
04:53 24.2 °C 18.8 °C 1011.7 hPa WSW 2.4 km/h 5.6 km/h 72 % 0 mm
04:58 24.1 °C 18.7 °C 1011.7 hPa WSW 2.9 km/h 8 km/h 72 % 0 mm
05:03 24.1 °C 18.7 °C 1011.7 hPa WSW 4.2 km/h 5.6 km/h 72 % 0 mm
05:08 24.1 °C 18.7 °C 1011.7 hPa SW 1.9 km/h 5.6 km/h 72 % 0 mm
05:13 24.1 °C 18.7 °C 1012.1 hPa SSW 3.2 km/h 5.6 km/h 72 % 0 mm
05:20 24 °C 18.7 °C 1012.1 hPa SSW 2.4 km/h 5.6 km/h 72 % 0 mm
05:25 23.9 °C 18.8 °C 1012.1 hPa SSW 3.1 km/h 5.6 km/h 73 % 0 mm
05:30 23.9 °C 18.8 °C 1011.7 hPa SW 2.7 km/h 7.4 km/h 73 % 0 mm
05:35 23.8 °C 18.7 °C 1011.7 hPa WSW 3.2 km/h 11.1 km/h 73 % 0 mm
05:40 23.8 °C 18.7 °C 1011.7 hPa SW 4 km/h 6.4 km/h 73 % 0 mm
05:45 23.8 °C 18.7 °C 1011.7 hPa SW 3.9 km/h 5.6 km/h 73 % 0 mm
05:50 23.8 °C 18.7 °C 1011.7 hPa SW 2.1 km/h 5.6 km/h 73 % 0 mm
05:55 23.7 °C 18.6 °C 1012.1 hPa WSW 5.8 km/h 9.3 km/h 73 % 0 mm
06:00 23.7 °C 18.6 °C 1012.1 hPa WSW 2.9 km/h 6.4 km/h 73 % 0 mm
06:05 23.8 °C 18.9 °C 1012.1 hPa SW 3.5 km/h 9.3 km/h 74 % 0 mm
06:10 23.8 °C 18.9 °C 1012.1 hPa SW 5.5 km/h 8 km/h 74 % 0 mm
06:15 23.8 °C 18.9 °C 1012.1 hPa SSW 4.2 km/h 5.6 km/h 74 % 0 mm
06:20 23.8 °C 18.9 °C 1012.1 hPa SW 3.7 km/h 5.6 km/h 74 % 0 mm
06:25 23.8 °C 18.9 °C 1012.1 hPa SW 2.9 km/h 5.6 km/h 74 % 0 mm
06:30 23.9 °C 18.9 °C 1012.1 hPa SW 2.1 km/h 5.6 km/h 74 % 0 mm
06:35 23.9 °C 19 °C 1012.1 hPa West 1.1 km/h 5.6 km/h 74 % 0 mm
06:40 24 °C 19.1 °C 1012.1 hPa WSW 3.5 km/h 6.4 km/h 74 % 0 mm
06:45 24.1 °C 19.2 °C 1012.1 hPa SW 5.1 km/h 5.6 km/h 74 % 0 mm
06:50 24.2 °C 19.3 °C 1012.1 hPa WSW 3.9 km/h 5.6 km/h 74 % 0 mm
06:55 24.4 °C 19.4 °C 1012.1 hPa West 0.6 km/h 3.7 km/h 74 % 0 mm
07:00 24.6 °C 19.6 °C 1012.1 hPa WSW 4.7 km/h 9.3 km/h 74 % 0 mm
07:06 24.7 °C 19.6 °C 1012.1 hPa SW 5.3 km/h 7.4 km/h 73 % 0 mm
07:11 24.9 °C 19.7 °C 1012.1 hPa SW 1.6 km/h 4.8 km/h 73 % 0 mm
07:16 25.1 °C 19.7 °C 1012.1 hPa SW 4.8 km/h 9.7 km/h 72 % 0 mm
07:21 25.3 °C 19.7 °C 1012.1 hPa SW 3.2 km/h 4.8 km/h 71 % 0 mm
07:31 25.8 °C 19.9 °C 1012.1 hPa WNW 0.6 km/h 3.7 km/h 70 % 0 mm
07:36 26 °C 20.1 °C 1012.1 hPa SSW 3.7 km/h 5.6 km/h 70 % 0 mm
07:41 26.2 °C 20.1 °C 1012.1 hPa WSW 2.9 km/h 5.6 km/h 69 % 0 mm
07:46 26.3 °C 20.1 °C 1012.1 hPa SW 6.9 km/h 9.7 km/h 69 % 0 mm
07:51 26.3 °C 19.9 °C 1012.1 hPa SW 3.1 km/h 9.3 km/h 68 % 0 mm
07:56 26.4 °C 20.2 °C 1012.1 hPa SW 5.8 km/h 11.1 km/h 69 % 0 mm
08:06 26.5 °C 20.1 °C 1012.1 hPa WSW 4.5 km/h 7.4 km/h 68 % 0 mm
08:11 26.6 °C 20.4 °C 1012.1 hPa West 3.7 km/h 5.6 km/h 69 % 0 mm
08:16 26.7 °C 20.5 °C 1012.1 hPa West 2.1 km/h 5.6 km/h 69 % 0 mm
08:21 26.7 °C 20.3 °C 1012.1 hPa SSW 3.4 km/h 6.4 km/h 68 % 0 mm
08:26 26.8 °C 20.4 °C 1012.1 hPa WSW 7.1 km/h 11.1 km/h 68 % 0 mm
08:31 26.9 °C 20.2 °C 1012.1 hPa SW 5.1 km/h 7.4 km/h 67 % 0 mm
08:36 27.1 °C 20.4 °C 1012.1 hPa SSW 7.1 km/h 11.1 km/h 67 % 0 mm
08:41 27.2 °C 20.5 °C 1012.1 hPa West 6.9 km/h 11.3 km/h 67 % 0 mm
08:46 27.3 °C 20.4 °C 1012.1 hPa SW 4 km/h 7.4 km/h 66 % 0 mm
08:51 27.4 °C 20.5 °C 1012.1 hPa WSW 3.4 km/h 9.3 km/h 66 % 0 mm
08:56 27.6 °C 20.6 °C 1012.1 hPa West 5.6 km/h 7.4 km/h 66 % 0 mm
09:01 27.7 °C 20.5 °C 1012.1 hPa WSW 6.1 km/h 13 km/h 65 % 0 mm
09:06 27.8 °C 20.6 °C 1012.1 hPa WSW 6.4 km/h 11.3 km/h 65 % 0 mm
09:11 27.8 °C 20.7 °C 1012.1 hPa SSW 4.2 km/h 9.3 km/h 65 % 0 mm
09:16 27.9 °C 20.8 °C 1011.7 hPa SW 3.9 km/h 5.6 km/h 65 % 0 mm
09:21 28 °C 20.8 °C 1012.1 hPa SW 4.3 km/h 8 km/h 65 % 0 mm
09:26 28.1 °C 20.8 °C 1011.7 hPa WSW 4.7 km/h 8 km/h 65 % 0 mm
09:31 28.2 °C 20.7 °C 1011.7 hPa West 8.2 km/h 11.1 km/h 64 % 0 mm
09:36 28.3 °C 20.6 °C 1011.7 hPa SW 5 km/h 9.7 km/h 63 % 0 mm
09:41 28.6 °C 21.1 °C 1011.7 hPa WSW 6 km/h 9.3 km/h 64 % 0 mm
09:46 28.8 °C 21.1 °C 1011.7 hPa SW 6.1 km/h 9.7 km/h 63 % 0 mm
09:51 29.2 °C 21.4 °C 1011.7 hPa WSW 4 km/h 6.4 km/h 63 % 0 mm
09:56 29.5 °C 21.9 °C 1011.7 hPa West 1.9 km/h 4.8 km/h 64 % 0 mm
10:01 29.9 °C 21.6 °C 1011.7 hPa NW 5.5 km/h 11.3 km/h 61 % 0 mm
10:06 30.4 °C 21.8 °C 1011.7 hPa WNW 6.3 km/h 11.1 km/h 60 % 0 mm
10:11 30.8 °C 22.4 °C 1011.7 hPa SW 4.5 km/h 12.9 km/h 61 % 0 mm
10:16 31.1 °C 21.6 °C 1011.4 hPa WSW 5.5 km/h 11.1 km/h 57 % 0 mm
10:21 31.4 °C 22.2 °C 1011.4 hPa West 5.8 km/h 8 km/h 58 % 0 mm
10:25 31.7 °C 21.5 °C 1011.4 hPa West 5.5 km/h 9.3 km/h 55 % 0 mm
10:30 31.9 °C 21.5 °C 1011.4 hPa WSW 6 km/h 9.3 km/h 54 % 0 mm
10:35 32.3 °C 21.8 °C 1011.4 hPa SW 7.9 km/h 13 km/h 54 % 0 mm
10:40 32.6 °C 21.7 °C 1011.4 hPa WSW 8 km/h 11.3 km/h 53 % 0 mm
10:45 32.8 °C 21.6 °C 1011.4 hPa West 3.4 km/h 6.4 km/h 52 % 0 mm
10:50 33.1 °C 22.8 °C 1011.4 hPa SW 7.1 km/h 11.1 km/h 55 % 0 mm
10:55 33.3 °C 22.4 °C 1011.4 hPa West 3.1 km/h 7.4 km/h 53 % 0 mm
11:00 33.7 °C 22.8 °C 1011.1 hPa WNW 2.7 km/h 5.6 km/h 53 % 0 mm
11:05 33.9 °C 21.7 °C 1011.1 hPa WSW 6.9 km/h 11.1 km/h 49 % 0 mm
11:10 34.2 °C 22.6 °C 1011.1 hPa SW 2.7 km/h 5.6 km/h 51 % 0 mm
11:15 34.3 °C 22.4 °C 1011.1 hPa SW 2.9 km/h 9.3 km/h 50 % 0 mm
11:20 34.5 °C 22.6 °C 1011.1 hPa WSW 4.2 km/h 6.4 km/h 50 % 0 mm
11:25 34.7 °C 22.4 °C 1011.1 hPa SW 3.1 km/h 8 km/h 49 % 0 mm
11:30 34.9 °C 22.6 °C 1011.1 hPa WSW 4.7 km/h 11.3 km/h 49 % 0 mm
11:35 35.1 °C 22.1 °C 1011.1 hPa WNW 7.1 km/h 11.3 km/h 47 % 0 mm
11:40 35.3 °C 21.9 °C 1011.1 hPa SW 5.6 km/h 13 km/h 46 % 0 mm
11:45 35.4 °C 21.7 °C 1011.1 hPa West 5.8 km/h 11.1 km/h 45 % 0 mm
11:50 35.6 °C 21.5 °C 1010.7 hPa WSW 12.6 km/h 18.5 km/h 44 % 0 mm
11:55 35.8 °C 22.7 °C 1011.1 hPa SSW 5.8 km/h 18.5 km/h 47 % 0 mm
12:00 36 °C 21.8 °C 1010.7 hPa WSW 4.8 km/h 9.3 km/h 44 % 0 mm
12:05 36.2 °C 22.4 °C 1010.7 hPa SSW 5.1 km/h 8 km/h 45 % 0 mm
12:10 36.3 °C 22.1 °C 1010.7 hPa West 4 km/h 13 km/h 44 % 0 mm
12:15 36.3 °C 22.8 °C 1010.7 hPa West 6 km/h 14.8 km/h 46 % 0 mm
12:20 36.5 °C 21.9 °C 1010.4 hPa SW 5 km/h 11.1 km/h 43 % 0 mm
12:25 36.5 °C 21.9 °C 1010.4 hPa West 5.5 km/h 11.1 km/h 43 % 0 mm
12:31 36.6 °C 21.9 °C 1010.4 hPa WSW 5.8 km/h 11.1 km/h 43 % 0 mm
12:36 36.6 °C 22.7 °C 1010.4 hPa SW 2.9 km/h 14.8 km/h 45 % 0 mm
12:41 36.7 °C 22.8 °C 1010.4 hPa WSW 8 km/h 12.9 km/h 45 % 0 mm
12:46 36.7 °C 21.3 °C 1010.4 hPa WSW 4.8 km/h 14.5 km/h 41 % 0 mm
12:51 36.8 °C 22.6 °C 1010 hPa WSW 6.1 km/h 9.3 km/h 44 % 0 mm
12:56 36.9 °C 21.5 °C 1010 hPa WSW 7.9 km/h 13 km/h 41 % 0 mm
13:01 36.9 °C 21.5 °C 1010 hPa SW 3.7 km/h 5.6 km/h 41 % 0 mm
13:06 36.9 °C 21.1 °C 1010 hPa WNW 7.7 km/h 16.7 km/h 40 % 0 mm
13:11 36.9 °C 21.9 °C 1010 hPa WSW 9 km/h 11.1 km/h 42 % 0 mm
13:16 37.1 °C 22.4 °C 1010 hPa WNW 6.4 km/h 14.8 km/h 43 % 0 mm
13:21 37.1 °C 21.7 °C 1010 hPa West 5 km/h 11.1 km/h 41 % 0 mm
13:26 37.2 °C 22.1 °C 1010 hPa SW 7.4 km/h 11.1 km/h 42 % 0 mm
13:31 37.2 °C 21.7 °C 1009.7 hPa SW 8.7 km/h 14.8 km/h 41 % 0 mm
13:36 37.2 °C 20.9 °C 1009.7 hPa SW 8.5 km/h 11.1 km/h 39 % 0 mm
13:41 37.3 °C 22.6 °C 1009.7 hPa WSW 2.7 km/h 5.6 km/h 43 % 0 mm
13:46 37.3 °C 21.4 °C 1009.7 hPa WSW 10.5 km/h 13 km/h 40 % 0 mm
13:51 37.3 °C 21.1 °C 1009.7 hPa WNW 4.7 km/h 9.3 km/h 39 % 0 mm
13:56 37.3 °C 21.4 °C 1009.7 hPa WNW 9 km/h 13 km/h 40 % 0 mm
14:01 37.3 °C 21.4 °C 1009.7 hPa West 8.9 km/h 13 km/h 40 % 0 mm
14:04 37.3 °C 21 °C 1009.7 hPa NW 2.4 km/h 18.5 km/h 39 % 0 mm
14:09 37.3 °C 21.8 °C 1009.4 hPa West 6 km/h 14.8 km/h 41 % 0 mm
14:14 37.3 °C 21.8 °C 1009.4 hPa West 8 km/h 12.9 km/h 41 % 0 mm
14:19 37.3 °C 22.2 °C 1009.4 hPa WSW 1.4 km/h 13 km/h 42 % 0 mm
14:24 37.3 °C 21.1 °C 1009.4 hPa SSW 6.6 km/h 16.7 km/h 39 % 0 mm
14:29 37.3 °C 20.6 °C 1009.4 hPa West 6.4 km/h 18.5 km/h 38 % 0 mm
14:34 37.3 °C 21 °C 1009 hPa WNW 3.4 km/h 9.3 km/h 39 % 0 mm
14:39 37.3 °C 21.1 °C 1009 hPa West 7.9 km/h 13 km/h 39 % 0 mm
14:44 37.4 °C 21.1 °C 1009 hPa SW 6.9 km/h 16.7 km/h 39 % 0 mm
14:49 37.4 °C 21.6 °C 1009 hPa WSW 3.5 km/h 11.1 km/h 40 % 0 mm
14:54 37.3 °C 20.6 °C 1009 hPa West 6.1 km/h 16.1 km/h 38 % 0 mm
14:59 37.2 °C 21.4 °C 1009 hPa WSW 2.9 km/h 9.3 km/h 40 % 0 mm
15:04 37.2 °C 20.9 °C 1009 hPa SW 0.3 km/h 1.9 km/h 39 % 0 mm
15:09 37 °C 21.6 °C 1008.7 hPa WNW 0.8 km/h 5.6 km/h 41 % 0 mm
15:14 36.9 °C 21.1 °C 1008.7 hPa SW 7.7 km/h 11.1 km/h 40 % 0 mm
15:19 36.9 °C 20.3 °C 1008.7 hPa WSW 6.6 km/h 13 km/h 38 % 0 mm
15:24 37 °C 20.3 °C 1008.7 hPa WSW 7.4 km/h 11.1 km/h 38 % 0 mm
15:29 37.1 °C 20.4 °C 1008.4 hPa WSW 3.1 km/h 5.6 km/h 38 % 0 mm
15:34 37.2 °C 20.9 °C 1008.4 hPa SW 5 km/h 7.4 km/h 39 % 0 mm
15:39 37.3 °C 21.1 °C 1008.7 hPa SW 5.8 km/h 7.4 km/h 39 % 0 mm
15:44 37.4 °C 21.2 °C 1008.7 hPa West 6.1 km/h 8 km/h 39 % 0 mm
15:49 37.5 °C 20.3 °C 1008.4 hPa West 5.3 km/h 7.4 km/h 37 % 0 mm
15:55 37.6 °C 20.4 °C 1008.4 hPa West 5 km/h 11.1 km/h 37 % 0 mm
16:00 37.7 °C 21.3 °C 1008.4 hPa WSW 4.2 km/h 5.6 km/h 39 % 0 mm
16:05 37.7 °C 21.8 °C 1008.4 hPa WSW 1 km/h 9.3 km/h 40 % 0 mm
16:10 37.6 °C 20.8 °C 1008.4 hPa West 3.2 km/h 9.3 km/h 38 % 0 mm
16:15 37.6 °C 20.4 °C 1008.4 hPa SSW 7.4 km/h 11.1 km/h 37 % 0 mm
16:20 37.7 °C 20.9 °C 1008.4 hPa WSW 6.1 km/h 11.1 km/h 38 % 0 mm
16:25 37.7 °C 20.5 °C 1008.4 hPa WSW 5.8 km/h 9.3 km/h 37 % 0 mm
16:30 37.8 °C 20.2 °C 1008.4 hPa SW 10 km/h 11.3 km/h 36 % 0 mm
16:35 37.8 °C 20.6 °C 1008.4 hPa West 6.6 km/h 11.1 km/h 37 % 0 mm
16:40 37.7 °C 20.6 °C 1008 hPa SW 3.4 km/h 7.4 km/h 37 % 0 mm
16:45 37.7 °C 20.5 °C 1008 hPa SW 2.6 km/h 6.4 km/h 37 % 0 mm
16:50 37.7 °C 20.5 °C 1008 hPa West 3.4 km/h 5.6 km/h 37 % 0 mm
16:51 37.7 °C 20.9 °C 1008 hPa WNW 3.7 km/h 7.4 km/h 38 % 0 mm
16:56 37.6 °C 20.4 °C 1008 hPa SW 6.4 km/h 9.7 km/h 37 % 0 mm
17:01 37.6 °C 21.2 °C 1008 hPa WSW 3.2 km/h 11.3 km/h 39 % 0 mm
17:03 37.5 °C 21.2 °C 1008 hPa SW 6.1 km/h 13 km/h 39 % 0 mm
17:08 37.3 °C 21.4 °C 1007.7 hPa South 0.8 km/h 5.6 km/h 40 % 0 mm
17:13 37.1 °C 21.2 °C 1008 hPa SSW 6.1 km/h 9.3 km/h 40 % 0 mm
17:19 36.8 °C 21.4 °C 1007.7 hPa ESE 1.1 km/h 5.6 km/h 41 % 0 mm
17:24 36.6 °C 21.6 °C 1007.7 hPa SSW 2.7 km/h 7.4 km/h 42 % 0 mm
17:29 36.3 °C 21.8 °C 1007.7 hPa SE 1.4 km/h 5.6 km/h 43 % 0 mm
17:34 36.1 °C 21.6 °C 1007.3 hPa SSE 1.1 km/h 5.6 km/h 43 % 0 mm
17:39 35.9 °C 21.3 °C 1007.3 hPa South 2.4 km/h 7.4 km/h 43 % 0 mm
17:44 35.6 °C 21.5 °C 1007.3 hPa South 4.5 km/h 11.1 km/h 44 % 0 mm
17:49 35.3 °C 21.2 °C 1007.7 hPa SW 3.4 km/h 16.7 km/h 44 % 0 mm
17:54 35 °C 21.3 °C 1007.3 hPa SW 2.6 km/h 7.4 km/h 45 % 0 mm
17:59 34.8 °C 21.4 °C 1007.3 hPa South 0.5 km/h 1.9 km/h 46 % 0 mm
18:04 34.6 °C 21.7 °C 1007.3 hPa SSW 0.6 km/h 3.7 km/h 47 % 0 mm
18:09 34.4 °C 21.4 °C 1007.7 hPa Calm   1.9 km/h 47 % 0 mm
18:14 34.2 °C 21.6 °C 1007.7 hPa SW 0.3 km/h 1.9 km/h 48 % 0 mm
18:19 34 °C 21.4 °C 1008 hPa SE 0.2 km/h 1.9 km/h 48 % 0 mm
18:24 33.8 °C 21.6 °C 1007.7 hPa Calm   1.9 km/h 49 % 0 mm
18:29 33.6 °C 21.8 °C 1007.7 hPa South 0.2 km/h 3.7 km/h 50 % 0 mm
18:34 33.4 °C 21.6 °C 1007.7 hPa South 0.3 km/h 3.7 km/h 50 % 0 mm
18:39 33.3 °C 21.8 °C 1007.7 hPa SW 1.3 km/h 5.6 km/h 51 % 0 mm
18:44 33.1 °C 21.6 °C 1007.7 hPa SSW 0.5 km/h 1.9 km/h 51 % 0 mm
18:45 33.1 °C 21.2 °C 1007.7 hPa SSW 2.4 km/h 5.6 km/h 50 % 0 mm
18:50 32.9 °C 21.4 °C 1007.7 hPa SSW 1.3 km/h 3.7 km/h 51 % 0 mm
18:55 32.8 °C 21.6 °C 1008 hPa SW 2.1 km/h 5.6 km/h 52 % 0 mm
19:00 32.6 °C 21.5 °C 1008 hPa SW 0.3 km/h 1.9 km/h 52 % 0 mm
19:01 32.6 °C 21.4 °C 1008 hPa SW 1 km/h 3.7 km/h 52 % 0 mm
19:11 32.2 °C 21.4 °C 1008 hPa SW 1.1 km/h 3.7 km/h 53 % 0 mm
19:16 32.1 °C 21.6 °C 1008 hPa SW 0.8 km/h 3.7 km/h 54 % 0 mm
19:21 31.9 °C 21.2 °C 1008 hPa SW 0.3 km/h 1.9 km/h 53 % 0 mm
19:26 31.8 °C 21.3 °C 1008 hPa SW 1.3 km/h 3.7 km/h 54 % 0 mm
19:31 31.6 °C 21.2 °C 1008 hPa SW 1.1 km/h 3.7 km/h 54 % 0 mm
19:36 31.4 °C 21.3 °C 1008 hPa Calm     55 % 0 mm
19:41 31.3 °C 21.2 °C 1008 hPa SW 0.2 km/h 1.9 km/h 55 % 0 mm
19:47 31.1 °C 21.3 °C 1008.4 hPa North 4.2 km/h 9.3 km/h 56 % 0 mm
19:52 30.8 °C 21 °C 1008.4 hPa North 0.6 km/h 5.6 km/h 56 % 0 mm
19:57 30.6 °C 20.8 °C 1008.4 hPa WSW 0.2 km/h 3.7 km/h 56 % 0 mm
20:02 30.4 °C 20.9 °C 1008.7 hPa Calm   1.6 km/h 57 % 0 mm
20:07 30.2 °C 20.7 °C 1008.4 hPa NNW 0.3 km/h 1.9 km/h 57 % 0 mm
20:12 30 °C 20.8 °C 1009 hPa NW 1.8 km/h 5.6 km/h 58 % 0 mm
20:17 29.8 °C 20.6 °C 1009 hPa North 5 km/h 9.7 km/h 58 % 0 mm
20:22 29.6 °C 20.9 °C 1009 hPa NE 0.2 km/h 3.7 km/h 60 % 0 mm
20:27 29.4 °C 21.1 °C 1008.7 hPa NE 0.2 km/h 1.9 km/h 61 % 0 mm
20:32 29.3 °C 21.2 °C 1008.7 hPa Calm     62 % 0 mm
20:37 29.2 °C 21.1 °C 1008.7 hPa Calm     62 % 0 mm
20:42 29 °C 21 °C 1008.7 hPa Calm     62 % 0 mm
20:47 28.9 °C 21.1 °C 1009 hPa Calm     63 % 0 mm
20:52 28.8 °C 21.3 °C 1009 hPa Calm     64 % 0 mm
20:57 28.7 °C 21.2 °C 1009 hPa Calm     64 % 0 mm
21:02 28.6 °C 21.3 °C 1009 hPa Calm     65 % 0 mm
21:07 28.4 °C 21.2 °C 1009 hPa Calm     65 % 0 mm
21:13 28.3 °C 21.4 °C 1009.4 hPa Calm     66 % 0 mm
21:18 28.2 °C 21.3 °C 1009.4 hPa Calm     66 % 0 mm
21:23 28.2 °C 21.2 °C 1009.7 hPa Calm     66 % 0 mm
21:28 28.1 °C 21.3 °C 1009.7 hPa NE 0.8 km/h 3.7 km/h 67 % 0 mm
21:33 28 °C 21.6 °C 1010 hPa Calm     68 % 0 mm
21:38 27.9 °C 21.5 °C 1010 hPa NW 3.4 km/h 5.6 km/h 68 % 0 mm
21:43 27.8 °C 21.6 °C 1010 hPa Calm     69 % 0 mm
21:48 27.8 °C 21.3 °C 1010 hPa Calm     68 % 0 mm
21:53 27.7 °C 21.5 °C 1010 hPa Calm     69 % 0 mm
21:58 27.7 °C 21.7 °C 1010 hPa Calm     70 % 0 mm
22:03 27.6 °C 21.8 °C 1010 hPa Calm     71 % 0 mm
22:08 27.5 °C 21.8 °C 1010 hPa Calm     71 % 0 mm
22:13 27.3 °C 21.8 °C 1010 hPa Calm     72 % 0 mm
22:18 27.2 °C 21.7 °C 1010 hPa Calm     72 % 0 mm
22:23 27.1 °C 21.6 °C 1010 hPa Calm     72 % 0 mm
22:28 26.9 °C 21.7 °C 1010 hPa Calm     73 % 0 mm
22:33 26.8 °C 21.6 °C 1010 hPa Calm     73 % 0 mm
22:38 26.7 °C 21.7 °C 1009.7 hPa Calm     74 % 0 mm
22:43 26.6 °C 21.6 °C 1009.7 hPa Calm     74 % 0 mm
22:48 26.4 °C 21.7 °C 1009.7 hPa Calm   1.9 km/h 75 % 0 mm
22:54 26.3 °C 21.5 °C 1009.7 hPa Calm   1.9 km/h 75 % 0 mm
22:59 26.2 °C 21.6 °C 1009.7 hPa Calm     76 % 0 mm
23:04 26.1 °C 21.5 °C 1009.7 hPa Calm     76 % 0 mm
23:09 25.9 °C 21.4 °C 1009.7 hPa Calm     76 % 0 mm
23:14 25.9 °C 21.6 °C 1009.7 hPa Calm     77 % 0 mm
23:19 25.8 °C 21.4 °C 1009.7 hPa Calm     77 % 0 mm
23:24 25.7 °C 21.6 °C 1009.7 hPa Calm     78 % 0 mm
23:29 25.6 °C 21.4 °C 1009.7 hPa Calm     78 % 0 mm
23:34 25.4 °C 21.3 °C 1010 hPa Calm     78 % 0 mm
23:39 25.4 °C 21.3 °C 1010 hPa Calm     78 % 0 mm
23:44 25.3 °C 21.2 °C 1010 hPa Calm   1.9 km/h 78 % 0 mm
23:49 25.2 °C 21.1 °C 1010 hPa Calm     78 % 0 mm
23:54 25.2 °C 21.1 °C 1010 hPa Calm     78 % 0 mm
Crab Meadow Weather
Compliments of Weather Underground - 3 mb

Script developed by  Jim McMurry - jmcmurry@mwt.net Adapted for the template by  Wim van der Kuil - Leuven-Template.eu

Weather Terms: Advisory - An advisory is issued when a hazardous weather or hydrologic event is occurring, imminent or likely. Advisories are for less serious conditions than warnings, that cause significant inconvenience and if caution is not exercised, could lead to situations that may threaten life or property.